User: anonymous   Login
Location: Long Point Provincial Park
(42.5794°N, 80.4103°W)
Time: 17:12:18
(UTC-04:00)
Language:

Iridium 19 - Orbit

View from above orbital plane
View from above orbital plane
View from above satellite
View from above satellite

Ground track
Ground track

The orbit data is extracted from the following two-line orbital elements,

1 24965U 97056A   16182.27982069  .00000174  00000-0  55190-4 0  9990
2 24965  86.3979 105.8361 0002251  85.1312 275.0141 14.34220017982119
Epoch (UTC): 30 June 2016 06:42:56
Eccentricity: 0.0002251
inclination: 86.3979°
perigee height: 776 km
apogee height: 779 km
right ascension of ascending node: 105.8361°
argument of perigee: 85.1312°
revolutions per day: 14.34220017
mean anomaly at epoch: 275.0141°
orbit number at epoch: 98211

The dashed part of the orbit path shows where the satellite is in the earth's shadow,  

DLR